Skip Page Navigation
NASA JPL Caltech
NASA Logo - Jet Propulsion Laboratory + View the NASA Portal
+ Center for Near-Earth Object Studies
JPL Home Earth Solar System Stars & Galaxies Technology
JPL Solar System Dynamics
BODIES ORBITS EPHEMERIDES TOOLS PHYSICAL DATA DISCOVERY FAQ SITE MAP
JPL Small-Body Database Browser
Search: [ help ]  
9712 Nauplius (1973 SO1)
Classification: Jupiter Trojan          SPK-ID: 2009712
Ephemeris | Orbit Diagram | Orbital Elements | Mission Design | Physical Parameters | Discovery Circumstances ]

[ show orbit diagram ]
Orbital Elements at Epoch 2459000.5 (2020-May-31.0) TDB
Reference: JPL 32 (heliocentric ecliptic J2000)
 Element Value Uncertainty (1-sigma)   Units 
e .1272750682407225 3.9367e-08  
a 5.231939755394115 9.0441e-08 au
q 4.56604426599498 2.5586e-07 au
i 8.466256432400764 6.3209e-06 deg
node 176.5845803736971 2.6051e-05 deg
peri 273.9606329447529 3.9418e-05 deg
M 262.0934275455991 3.2967e-05 deg
tp 2460189.281053586700
(2023-Sep-01.78105359)
0.00041772 TDB
period 4371.117980772239
11.97
0.00011334
3.103e-07
d
yr
n .08235879278106314 2.1355e-09 deg/d
Q 5.897835244793249 1.0195e-07 au
  Orbit Determination Parameters
   # obs. used (total)      1529  
   data-arc span      17202 days (47.10 yr)  
   first obs. used      1973-09-19  
   last obs. used      2020-10-24  
   planetary ephem.      DE431  
   SB-pert. ephem.      SB431-N16  
   condition code      0  
   norm. resid. RMS      .53792  
   source      ORB  
   producer      Otto Matic  
   solution date      2020-Nov-13 03:11:39  

Additional Information
 Earth MOID = 3.5962 au 
 Jupiter MOID = .103006 au 
 T_jup = 2.962 
[ show covariance matrix ]

Ephemeris | Orbit Diagram | Orbital Elements | Mission Design | Physical Parameters | Discovery Circumstances ]

Physical Parameter Table
Parameter Symbol Value Units Sigma Reference Notes
absolute magnitude H 10.9   n/a MPO452307  
diameter diameter 33.423 km 4.321 urn:nasa:pds:neowise_diameters_albedos::2.0[jupiter_trojans] (http://adsabs.harvard.edu/abs/2012ApJ...759...49G)  
rotation period rot_per 19.41 h n/a LCDB (Rev. 2019-August); Warner et al., 2009 Result based on less than full coverage, so that the period may be wrong by 30 percent or so.
Published Reference List:
[Stephens, R.D.; Coley, D.R.; French, L.M. (2014) Minor Planet Bull. 41, 210-212.]
geometric albedo albedo 0.083   0.026 urn:nasa:pds:neowise_diameters_albedos::2.0[jupiter_trojans] (http://adsabs.harvard.edu/abs/2012ApJ...759...49G)  

9712 Nauplius           Discovered 1973 Sept. 19 by C. J. van Houten and I. van Houten-Groeneveld on Palomar Schmidt plates taken by T. Gehrels.
Nauplius, a son of Poseidon and Amymone, was king of Euboea and father of Palamedes. After a false accusation by Odysseus caused the death of Palamedes, Nauplius sailed to Troy to seek vengeance. But this was denied by Agamemnon, so Nauplius returned to Greece, together with his surviving son Oceax. However, Nauplius earned his revenge. He misled the Greeks returning from Troy by placing lights on the cliffs of his land, so that many ships ran aground.
NOTE: some special characters may not display properly (any characters within {} are an attempt to place the proper accent above a character)
Reference: 19990402/MPCPages.arcLast Updated: 2010-06-11

Alternate Designations
 1973 SO1 = 1978 EO9 = 1989 EB8 
Ephemeris | Orbit Diagram | Orbital Elements | Mission Design | Physical Parameters | Discovery Circumstances ]
ABOUT SSD CREDITS/AWARDS PRIVACY/COPYRIGHT GLOSSARY LINKS
FirstGov 2020-Nov-30 18:33 UT
(server date/time)  
NASA Home Page
Site Manager:   Ryan S. Park
Webmaster  Alan B. Chamberlin